Flag for United Kingdom Weather past 2 weeks in Brentwood, England, United Kingdom

Now
36 °F

Chilly.


Feels Like: 27 °F
Forecast: 32 / 39 °F
Wind: 13 mph from North

Location: Gravesend-Broadness

Current Time: Dec 28, 2014 at 2:26:17 AM

Latest Report: Dec 28, 2014 at 1:00 AM


Visibility: N/A

Pressure: 29.98 "Hg

Humidity: 87%

Dew point: 32 °F

Location of BrentwoodLocation

Historic Weather in Brentwood — Graph

°F

Brentwood temperature yesterday

Maximum temperature yesterday: 49 °F (at 1:00 AM)
Minimum temperature yesterday: 35 °F (at 10:00 PM)
Average temperature yesterday: 39 °F

Past Weeks' High & Low Weather Summary

 TemperatureHumidityPressure
High57 °F (Dec 18, 11:00 AM)98% (Dec 16, 1:00 AM)30.48 "Hg (Dec 16, 1:00 AM)
Low29 °F (Dec 13, 8:00 PM)56% (Dec 19, 1:00 PM)29.41 "Hg (Dec 27, 1:00 AM)
Average46 °F83%30.00 "Hg
* Reported Dec 13 1:00 AM — Dec 28 1:00 AM, Brentwood, Weather by CustomWeather, © 2014

Note: Actual official high and low records may vary slightly from our data, if they occured in-between our weather recording intervals... More about our weather records

Advertising

Brentwood weather history for previous 24 hours

 ConditionsComfort  
Time TempWeatherWind HumidityBarometerVisibility
1:00 AM
Dec 28
36 °FChilly.13 mph87%29.98 "HgN/A
12:00 AM35 °FChilly.10 mph90%29.95 "HgN/A
11:00 PM
Dec 27
36 °FChilly.12 mph91%29.92 "HgN/A
10:00 PM35 °FChilly.10 mph93%29.88 "HgN/A
9:00 PM36 °FChilly.10 mph92%29.85 "HgN/A
8:00 PM36 °FChilly.15 mph91%29.82 "HgN/A
7:00 PM37 °FChilly.12 mph91%29.80 "HgN/A
6:00 PM37 °FChilly.10 mph89%29.78 "HgN/A
5:00 PM38 °FChilly.10 mph90%29.76 "HgN/A
4:00 PM38 °FChilly.12 mph89%29.75 "HgN/A
3:00 PM38 °FChilly.15 mph89%29.74 "HgN/A
2:00 PM38 °FChilly.14 mph91%29.74 "HgN/A
1:00 PM39 °FChilly.15 mph87%29.75 "HgN/A
12:00 PM39 °FChilly.15 mph89%29.74 "HgN/A
11:00 AM38 °FChilly.16 mph89%29.73 "HgN/A
10:00 AM38 °FChilly.16 mph91%29.72 "HgN/A
9:00 AM38 °FChilly.17 mph90%29.71 "HgN/A
8:00 AM38 °FChilly.20 mph90%29.68 "HgN/A
7:00 AM38 °FChilly.21 mph90%29.65 "HgN/A
6:00 AM38 °FChilly.21 mph93%29.60 "HgN/A
5:00 AM38 °FChilly.22 mph91%29.56 "HgN/A
4:00 AM37 °FChilly.21 mph93%29.50 "HgN/A
3:00 AM37 °FChilly.21 mph93%29.44 "HgN/A
2:00 AM41 °FQuite cool.24 mph88%29.44 "HgN/A
Weather by CustomWeather, © 2014

See weather overviewHow to use our weather pages